User: anonymous   Login
Location: Unspecified
(0.0000°N, 0.0000°E)
Time: 23:18:13
(UTC+02:00)
Language:

Iridium 33 - Orbit

View from above orbital plane
View from above orbital plane
View from above satellite
View from above satellite

Ground track
Ground track

The orbit data is extracted from the following two-line orbital elements,

1 24946U 97051C   16177.14544557  .00000109  00000-0  32426-4 0  9995
2 24946  86.3884  76.1980 0007086 342.3473  17.7475 14.33496513982887
Epoch (UTC): 25 June 2016 03:29:26
Eccentricity: 0.0007086
inclination: 86.3884°
perigee height: 775 km
apogee height: 785 km
right ascension of ascending node: 76.1980°
argument of perigee: 342.3473°
revolutions per day: 14.33496513
mean anomaly at epoch: 17.7475°
orbit number at epoch: 98288

The dashed part of the orbit path shows where the satellite is in the earth's shadow,  

DLR